Starlink 33827

operational
NORAD ID: 63798 Int'l Des: 2025-091 Owner: SPXS Country: US Constellation: starlink
LEOCIRCULAR

Über Starlink 33827

Beschreibung wird geladen...

Live-Position

3D-Globus wird geladen...

Nächste Überflüge

Höhenverlauf

Altitude vs Time

uPlot chart will show altitude changes over time

Zweizeiliger Elementsatz

1 63798U 25091Z 26071.18646060 .00023669 00000-0 86614-3 0 9991
2 63798 43.0013 38.4586 0001476 276.6743 83.3941 15.27608384 49288
Epoch: 12. März 2026 • Age: 22 hours

Aktueller Status

Höhe 484.8 km
Geschwindigkeit 7.62 km/s
Subsatellitenpunkt -13.16°S, 115.35°W
Startdatum 2. Mai 2025
Alter 0.8 years
Typ internet

Technische Details

Klassifizierung Payload
Masse 575.00 kg
Trockenmasse 530.00 kg
Gesamtmasse 575.00 kg
Länge 0.30 m
Durchmesser 4.10 m
Spannweite 29.00 m
Form Box + pan
Hersteller SPXS
Bus-Typ Starlink V2MO
Phasenstatus In Orbit
Besitzer/Staat SPXS/US

Große Konstellationen

Loading constellations...